Погода в Кулудуффуши

Мальдивы     6°37′25″N   73°04′19″E
темп.,
°C
ветер,
м/с
пор.,
м/с
влажн.,
%
обл.,
%
осадки,
мм/ч
давл.,
гПа
погр.,
м
15 августа, пн
пн1523:00+28ссз5678100 0.0 1011775
02:00+27ссз4580100 0.0 1009682
05:00+27ссз4579100 0.0 1009540
08:00+27с4579100 0.0 1011554
11:00+27ссв4579100 0.0 1011649
14:00+27с4678100 0.0 1009691
17:00+28с457895 0.0 1009680
20:00+27с3480100 0.0 1010617
16 августа, вт
вт1623:00+27ссв237947 0.0 1011565
02:00+27с22815 0.1 1009284
05:00+27с237940 0.3 1009281
08:00+27ссв3377100 0.1 1011328
11:00+27св337586 0.1 1011433
14:00+27ссв337488 0.0 1008622
17:00+28ссв227412 0.0 1008719
20:00+27св11755 0.0 1011513
17 августа, ср
ср1723:00+27ююз11777 0.1 1011265
02:00+27юз227999 0.1 1010216
05:00+27юз217887 0.2 1010282
08:00+27юз11765 0.1 1012224
11:00+27юз217599 0.1 1011376
14:00+27зюз1173100 0.0 1009547
17:00+27з1171100 0.0 1009570
20:00+27зюз1172100 0.0 1011470
18 августа, чт
чт1823:00+27юз227489 0.0 1011436
02:00+27з22766 0.0 1009457
05:00+27зсз2277100 0.0 1010490
08:00+27зсз3377100 0.0 1011433
11:00+27сз4476100 0.0 1011469
14:00+27сз447591 0.0 1009630
17:00+27сз4475100 0.0 1009728
20:00+27зсз347799 0.0 1010684
19 августа, пт
пт1923:00+27зсз227732 0.1 1011526
02:00+27зсз448098 0.8 1009482
05:00+27зсз347973 0.8 1009563
08:00+27сз33786 0.7 1011450
11:00+27сз457641 0.7 1011636
14:00+27сз557510 0.0 1009849
17:00+28сз66767 0.0 1009890
20:00+27зсз5680100 0.1 1011669